• In Czech Republic
  • List of Countries
  • For 7 days
  • Water Temperature
  • Satellite Maps
  • Weather Map
  • Weather Widgets
  • user-avatar
    Login

    Hourly Weather Whitehorse

    Today, 24 October, Tuesday

    Time Temperature Precipitation Wind Pressure Humidity
    00:00 -2°C° 0.1 mm 1 mps 685 mmHg 92%
    01:00 -4°C° 0 mm 2 mps 685 mmHg 92%
    02:00 -5°C° 0 mm 2 mps 686 mmHg 91%
    03:00 -5°C° 0 mm 2 mps 687 mmHg 91%
    04:00 -5°C° 0 mm 2 mps 687 mmHg 91%
    05:00 -6°C° 0 mm 2 mps 688 mmHg 91%
    06:00 -6°C° 0 mm 2 mps 688 mmHg 91%
    07:00 -6°C° 0 mm 2 mps 689 mmHg 88%
    08:00 -5°C° 0 mm 2 mps 689 mmHg 86%
    09:00 -5°C° 0 mm 2 mps 689 mmHg 83%
    10:00 -3°C° 0 mm 2 mps 688 mmHg 80%
    11:00 -2°C° 0 mm 2 mps 688 mmHg 76%
    12:00 -1°C° 0 mm 2 mps 688 mmHg 72%
    13:00 -1°C° 0 mm 2 mps 687 mmHg 74%
    14:00 0°C° 0 mm 1 mps 686 mmHg 75%
    15:00 0°C° 0 mm 1 mps 685 mmHg 77%
    16:00 -1°C° 0 mm 1 mps 685 mmHg 80%
    17:00 -2°C° 0 mm 1 mps 685 mmHg 83%
    18:00 -3°C° 0 mm 1 mps 685 mmHg 87%
    19:00 -3°C° 0 mm 1 mps 685 mmHg 87%
    20:00 -4°C° 0 mm 1 mps 684 mmHg 87%
    21:00 -4°C° 0 mm 1 mps 684 mmHg 88%
    22:00 -4°C° 0 mm 1 mps 685 mmHg 86%
    23:00 -4°C° 0 mm 1 mps 685 mmHg 85%

    Tomorrow, 25 October, Wednesday

    Time Temperature Precipitation Wind Pressure Humidity
    00:00 -6°C° 0 mm 1 mps 685 mmHg 84%
    01:00 -6°C° 0 mm 1 mps 685 mmHg 82%
    02:00 -7°C° 0 mm 2 mps 686 mmHg 81%
    03:00 -7°C° 0 mm 2 mps 686 mmHg 80%
    04:00 -7°C° 0 mm 2 mps 686 mmHg 79%
    05:00 -7°C° 0 mm 2 mps 687 mmHg 78%
    06:00 -8°C° 0 mm 3 mps 687 mmHg 77%
    07:00 -7°C° 0 mm 3 mps 687 mmHg 74%
    08:00 -6°C° 0 mm 3 mps 687 mmHg 70%
    09:00 -6°C° 0 mm 3 mps 688 mmHg 66%
    10:00 -5°C° 0 mm 3 mps 687 mmHg 63%
    11:00 -2°C° 0 mm 3 mps 687 mmHg 59%
    12:00 -2°C° 0 mm 4 mps 687 mmHg 55%
    13:00 -2°C° 0 mm 4 mps 687 mmHg 57%
    14:00 -2°C° 0 mm 4 mps 687 mmHg 59%
    15:00 -2°C° 0 mm 4 mps 687 mmHg 61%
    16:00 -3°C° 0 mm 4 mps 687 mmHg 65%
    17:00 -3°C° 0 mm 4 mps 687 mmHg 70%
    18:00 -3°C° 0 mm 4 mps 687 mmHg 74%
    19:00 -4°C° 0 mm 4 mps 687 mmHg 78%
    20:00 -4°C° 0 mm 4 mps 687 mmHg 81%
    21:00 -4°C° 0 mm 3 mps 687 mmHg 85%
    22:00 -4°C° 0 mm 3 mps 687 mmHg 86%
    23:00 -4°C° 0 mm 3 mps 687 mmHg 88%

    Day after tomorrow, 26 October, Thursday

    Time Temperature Precipitation Wind Pressure Humidity
    00:00 -4°C° 0 mm 3 mps 687 mmHg 89%
    01:00 -4°C° 0 mm 3 mps 688 mmHg 90%
    02:00 -4°C° 0 mm 3 mps 688 mmHg 91%
    03:00 -4°C° 0 mm 3 mps 688 mmHg 91%
    04:00 -2°C° 0 mm 3 mps 688 mmHg 90%
    05:00 -3°C° 0 mm 4 mps 688 mmHg 89%
    06:00 -2°C° 0 mm 4 mps 687 mmHg 88%
    07:00 -2°C° 0 mm 4 mps 687 mmHg 86%
    08:00 -2°C° 0 mm 4 mps 687 mmHg 83%
    09:00 -1°C° 0 mm 5 mps 687 mmHg 80%
    10:00 -1°C° 0 mm 5 mps 687 mmHg 79%
    11:00 0°C° 0 mm 4 mps 686 mmHg 79%
    12:00 0°C° 0 mm 4 mps 686 mmHg 78%
    13:00 0°C° 0 mm 4 mps 686 mmHg 80%
    14:00 +1°C° 0 mm 4 mps 685 mmHg 81%
    15:00 +1°C° 0 mm 4 mps 685 mmHg 83%
    16:00 +1°C° 0 mm 3 mps 684 mmHg 85%
    17:00 +1°C° 0 mm 3 mps 684 mmHg 88%
    18:00 0°C° 0 mm 3 mps 684 mmHg 90%
    19:00 +1°C° 0 mm 3 mps 684 mmHg 90%
    20:00 0°C° 0 mm 4 mps 684 mmHg 91%
    21:00 0°C° 0 mm 4 mps 684 mmHg 91%
    22:00 0°C° 0 mm 4 mps 684 mmHg 91%
    23:00 +1°C° 0 mm 4 mps 684 mmHg 92%

    27 October, Friday

    Time Temperature Precipitation Wind Pressure Humidity
    00:00 +1°C° 0 mm 4 mps 684 mmHg 92%
    01:00 +1°C° 0 mm 4 mps 684 mmHg 92%
    02:00 +1°C° 0 mm 4 mps 684 mmHg 93%
    03:00 +1°C° 0 mm 4 mps 683 mmHg 93%
    04:00 +1°C° 0 mm 4 mps 683 mmHg 92%
    05:00 +2°C° 0 mm 5 mps 683 mmHg 92%
    06:00 +3°C° 0 mm 6 mps 683 mmHg 91%
    07:00 +3°C° 0 mm 6 mps 682 mmHg 89%
    08:00 +4°C° 0 mm 6 mps 682 mmHg 88%
    09:00 +5°C° 0 mm 7 mps 681 mmHg 87%
    10:00 +6°C° 0 mm 7 mps 681 mmHg 84%
    11:00 +8°C° 0 mm 7 mps 681 mmHg 82%
    12:00 +9°C° 0 mm 7 mps 681 mmHg 79%
    13:00 +8°C° 0 mm 6 mps 680 mmHg 82%
    14:00 +7°C° 0 mm 5 mps 680 mmHg 85%
    15:00 +7°C° 0 mm 5 mps 680 mmHg 88%
    16:00 +6°C° 0 mm 4 mps 679 mmHg 90%
    17:00 +5°C° 0 mm 4 mps 679 mmHg 92%
    18:00 +4°C° 0 mm 4 mps 679 mmHg 94%
    19:00 +4°C° 0.1 mm 3 mps 679 mmHg 94%
    20:00 +4°C° 0.1 mm 3 mps 679 mmHg 94%
    21:00 +4°C° 0.1 mm 3 mps 680 mmHg 94%
    22:00 +3°C° 0 mm 3 mps 680 mmHg 93%
    23:00 +3°C° 0 mm 3 mps 681 mmHg 92%

    28 October, Saturday

    Time Temperature Precipitation Wind Pressure Humidity
    00:00 +2°C° 0 mm 3 mps 682 mmHg 90%
    01:00 +3°C° 0.2 mm 2 mps 683 mmHg 90%
    02:00 +2°C° 0.2 mm 2 mps 685 mmHg 89%
    03:00 +2°C° 0.2 mm 2 mps 686 mmHg 88%
    04:00 +2°C° 0.2 mm 2 mps 687 mmHg 89%
    05:00 +2°C° 0.2 mm 2 mps 688 mmHg 90%
    06:00 +2°C° 0.2 mm 2 mps 689 mmHg 90%
    07:00 +3°C° 0 mm 1 mps 690 mmHg 90%
    08:00 +3°C° 0 mm 1 mps 691 mmHg 89%
    09:00 +3°C° 0 mm 1 mps 692 mmHg 88%
    10:00 +2°C° 0 mm 2 mps 692 mmHg 83%
    11:00 +3°C° 0 mm 2 mps 693 mmHg 79%
    12:00 +3°C° 0 mm 2 mps 694 mmHg 74%
    13:00 +3°C° 0 mm 2 mps 694 mmHg 75%
    14:00 +2°C° 0 mm 2 mps 695 mmHg 77%
    15:00 +3°C° 0 mm 1 mps 695 mmHg 79%
    16:00 +2°C° 0 mm 1 mps 696 mmHg 82%
    17:00 +1°C° 0 mm 1 mps 696 mmHg 85%
    18:00 -1°C° 0 mm 0 mps 697 mmHg 89%
    19:00 -1°C° 0 mm 0 mps 697 mmHg 89%
    20:00 -2°C° 0 mm 0 mps 698 mmHg 89%
    21:00 -1°C° 0 mm 1 mps 698 mmHg 89%
    22:00 -1°C° 0 mm 1 mps 698 mmHg 88%
    23:00 -1°C° 0 mm 1 mps 698 mmHg 87%

    29 October, Sunday

    Time Temperature Precipitation Wind Pressure Humidity
    00:00 -1°C° 0 mm 1 mps 699 mmHg 86%
    01:00 -1°C° 0 mm 1 mps 698 mmHg 85%
    02:00 -1°C° 0 mm 1 mps 698 mmHg 84%
    03:00 -3°C° 0 mm 2 mps 698 mmHg 83%
    04:00 -3°C° 0 mm 2 mps 698 mmHg 83%
    05:00 -3°C° 0 mm 2 mps 698 mmHg 82%
    06:00 -3°C° 0 mm 2 mps 698 mmHg 81%
    07:00 -3°C° 0 mm 2 mps 697 mmHg 78%
    08:00 -2°C° 0 mm 2 mps 697 mmHg 74%
    09:00 -2°C° 0 mm 2 mps 697 mmHg 71%
    10:00 -1°C° 0 mm 2 mps 697 mmHg 67%
    11:00 +1°C° 0 mm 2 mps 696 mmHg 63%
    12:00 +1°C° 0 mm 3 mps 696 mmHg 60%
    13:00 +2°C° 0 mm 2 mps 696 mmHg 61%
    14:00 +2°C° 0 mm 2 mps 695 mmHg 62%
    15:00 +2°C° 0 mm 2 mps 695 mmHg 63%
    16:00 0°C° 0 mm 3 mps 694 mmHg 63%
    17:00 0°C° 0 mm 3 mps 694 mmHg 63%
    18:00 0°C° 0 mm 3 mps 694 mmHg 63%
    19:00 0°C° 0 mm 3 mps 693 mmHg 62%
    20:00 0°C° 0 mm 3 mps 693 mmHg 60%
    21:00 0°C° 0 mm 3 mps 693 mmHg 59%
    22:00 +1°C° 0.1 mm 3 mps 692 mmHg 59%
    23:00 +1°C° 0.1 mm 3 mps 692 mmHg 59%

    30 October, Monday

    Time Temperature Precipitation Wind Pressure Humidity
    00:00 0°C° 0.1 mm 4 mps 691 mmHg 59%
    01:00 0°C° 0 mm 4 mps 691 mmHg 60%
    02:00 0°C° 0 mm 4 mps 690 mmHg 61%
    03:00 0°C° 0 mm 4 mps 690 mmHg 62%
    04:00 0°C° 0 mm 4 mps 690 mmHg 65%
    05:00 +1°C° 0 mm 3 mps 690 mmHg 68%
    06:00 +1°C° 0 mm 3 mps 689 mmHg 71%
    07:00 +1°C° 0 mm 3 mps 689 mmHg 74%
    08:00 +1°C° 0 mm 3 mps 689 mmHg 77%
    09:00 +2°C° 0 mm 2 mps 689 mmHg 80%
    10:00 +3°C° 0 mm 2 mps 690 mmHg 80%
    11:00 +3°C° 0 mm 2 mps 690 mmHg 79%
    12:00 +4°C° 0 mm 2 mps 690 mmHg 79%
    13:00 +5°C° 0.1 mm 1 mps 691 mmHg 82%
    14:00 +5°C° 0.1 mm 1 mps 691 mmHg 84%
    15:00 +4°C° 0.1 mm 1 mps 692 mmHg 87%
    16:00 +3°C° 0 mm 1 mps 692 mmHg 88%
    17:00 +3°C° 0 mm 1 mps 693 mmHg 89%
    18:00 +2°C° 0 mm 1 mps 693 mmHg 90%
    19:00 +2°C° 0 mm 1 mps 694 mmHg 91%
    20:00 +1°C° 0 mm 1 mps 694 mmHg 91%
    21:00 +1°C° 0 mm 1 mps 694 mmHg 92%
    22:00 +1°C° 0 mm 1 mps 695 mmHg 92%
    23:00 +1°C° 0 mm 1 mps 695 mmHg 92%
    Show more